CAPE
0 0 0 0 0 0 0 0 0 0 0 261 488 613 616 537 397 267 218 101 12 0 0 0 0 0 0 0 0 0 0 0 0 0 0 0 0 0 0 0 0 0 0
0 0 0 0 0 0 0 0 0 0 0 19 221 485 475 590 524 289 281 195 19 0 0 0 0 0 0 0 0 0 0 0 0 0 0 0 0 0 0 0 0 0 0
0 0 0 0 0 0 0 0 0 0 0 0 40 142 261 119 392 287 275 247 69 25 7 0 0 0 0 0 0 0 0 0 0 0 0 0 0 0 0 0 0 0 0
0 0 0 0 0 0 0 0 0 0 0 0 0 0 12 26 173 381 387 210 79 73 20 7 0 0 0 0 0 0 0 0 0 0 0 0 0 0 0 0 0 0 0
0 0 0 0 0 0 0 0 0 0 0 0 0 0 0 79 128 242 320 159 9 9 6 0 0 0 0 0 0 0 0 0 0 0 0 0 0 0 0 0 0 0 0
0 0 0 0 0 0 0 0 0 0 0 0 0 0 0 0 0 79 229 76 7 0 0 0 0 0 0 0 0 0 0 0 0 0 0 0 0 0 0 0 0 0 0
0 0 0 0 0 0 0 0 0 0 0 0 0 0 0 0 7 39 86 35 0 0 0 0 0 0 0 0 0 0 0 0 0 0 0 0 0 0 0 0 0 0 0
0 0 0 0 0 0 0 0 0 0 0 0 0 0 0 0 0 37 35 44 18 2 0 0 0 0 0 0 0 0 0 0 0 0 0 0 0 0 0 0 0 0 0
0 0 0 0 0 0 0 0 0 0 0 0 0 0 0 0 0 0 0 18 5 0 0 0 1 0 0 0 0 0 0 0 0 0 0 0 0 0 0 0 0 0 0
0 0 0 0 0 0 0 0 0 0 0 0 0 0 0 0 0 0 0 0 0 0 0 1 0 0 0 0 0 0 0 0 0 0 0 0 0 0 0 0 0 0 0
0 0 0 0 0 0 0 0 0 0 0 0 0 0 0 0 0 0 0 0 0 0 0 0 0 0 0 0 0 0 0 0 0 0 0 0 0 0 0 0 0 0 0
0 0 0 0 0 0 0 0 0 0 0 0 0 0 0 0 0 0 0 0 0 0 0 0 0 0 0 0 0 0 0 0 0 0 0 0 0 0 0 0 0 0 0
0 0 0 0 0 0 0 0 0 0 0 0 0 0 0 0 0 0 0 0 0 0 0 0 0 0 0 0 0 0 0 0 0 0 0 0 0 0 0 0 0 0 0
0 0 0 0 0 0 0 0 0 0 0 0 0 0 0 0 0 0 0 0 0 0 0 0 0 0 0 0 0 0 0 0 0 0 0 0 0 0 0 0 0 0 0
0 0 0 0 0 0 0 0 0 0 0 0 0 0 0 0 0 0 0 0 0 0 0 0 0 0 0 0 0 0 0 0 0 0 0 0 0 0 0 0 0 0 0
0 0 0 0 0 0 0 0 0 0 0 0 0 0 0 0 0 0 0 0 0 0 0 0 0 0 0 1 0 0 0 0 0 0 0 0 0 0 0 0 0 0 0
0 0 0 0 0 0 0 0 0 0 0 0 0 0 0 0 0 0 0 0 0 0 0 0 0 1 4 4 4 2 0 0 0 0 0 0 0 0 0 0 0 0 0
0 0 0 0 0 0 0 0 0 0 0 2 2 0 0 0 0 0 0 0 0 0 0 0 0 0 1 3 0 0 0 0 0 0 0 0 0 0 0 0 0 0 0
0 0 0 0 0 0 0 0 0 1 2 1 1 2 1 1 1 0 0 1 0 0 1 0 0 0 0 1 0 0 0 0 0 0 0 0 0 0 0 0 0 0 0
0 0 0 0 0 0 0 0 0 0 1 2 2 1 2 0 0 0 0 0 0 1 1 1 0 0 0 0 0 0 0 0 0 0 0 0 0 1 3 1 0 0 0
0 0 0 0 0 0 0 0 0 0 0 1 0 0 0 0 0 0 0 1 0 0 0 0 0 0 0 0 0 0 0 0 0 0 0 0 0 1 5 2 0 0 1
0 0 0 0 0 0 0 0 0 1 1 0 0 1 0 0 0 0 0 0 0 0 0 0 0 0 0 0 0 0 0 0 0 0 0 0 3 0 0 0 0 2 0
3 0 1 0 0 1 1 0 2 1 0 0 1 0 0 0 0 0 0 0 0 0 0 0 0 0 0 0 0 0 0 0 0 0 0 0 0 0 0 0 0 0 0
2 2 2 1 1 1 1 1 1 1 0 0 0 0 0 0 0 0 0 0 0 0 0 0 0 0 0 0 0 0 0 0 0 0 0 0 0 0 0 0 0 0 0
0 0 0 0 0 0 0 0 0 0 0 0 0 0 0 0 0 0 0 0 0 0 0 0 0 0 0 0 0 0 0 0 0 0 0 0 0 0 0 0 0 0 0
0 0 0 0 0 0 0 0 0 0 0 0 0 0 0 0 0 0 0 0 0 0 0 0 0 0 0 0 1 0 0 0 0 0 0 0 0 0 0 0 0 0 0
CIN
-0 -0 -0 -0 -0 -0 -0 -0 -0 -0 -0 -109 -91 -60 -87 -125 -121 -188 -189 -228 -316 -0 -0 -0 -0 -0 -0 -0 -0 -0 -0 -0 -0 -0 -0 -0 -0 -0 -0 -0 -0 -0 -0
-0 -0 -0 -0 -0 -0 -0 -0 -0 -0 -0 -155 -135 -112 -127 -91 -144 -184 -187 -196 -277 -0 -0 -0 -0 -0 -0 -0 -0 -0 -0 -0 -0 -0 -0 -0 -0 -0 -0 -0 -0 -0 -0
-0 -0 -0 -0 -0 -0 -0 -0 -0 -0 -0 -0 -152 -141 -122 -163 -103 -131 -180 -219 -262 -292 -306 -0 -0 -0 -0 -0 -0 -0 -0 -0 -0 -0 -0 -0 -0 -0 -0 -0 -0 -0 -0
-0 -0 -0 -0 -0 -0 -0 -0 -0 -0 -0 -0 -0 -0 -111 -188 -182 -155 -171 -230 -282 -263 -297 -325 -0 -0 -0 -0 -0 -0 -0 -0 -0 -0 -0 -0 -0 -0 -0 -0 -0 -0 -0
-0 -0 -0 -0 -0 -0 -0 -0 -0 -0 -0 -0 -0 -0 -0 -120 -134 -127 -135 -169 -280 -299 -297 -0 -0 -0 -0 -0 -0 -0 -0 -0 -0 -0 -0 -0 -0 -0 -0 -0 -0 -0 -0
-0 -0 -0 -0 -0 -0 -0 -0 -0 -0 -0 -0 -0 -0 -0 -0 -0 -134 -106 -198 -215 -0 -0 -0 -0 -0 -0 -0 -0 -0 -0 -0 -0 -0 -0 -0 -0 -0 -0 -0 -0 -0 -0
-0 -0 -0 -0 -0 -0 -0 -0 -0 -0 -0 -0 -0 -0 -0 -0 -83 -116 -155 -200 -0 -0 -0 -0 -0 -0 -0 -0 -0 -0 -0 -0 -0 -0 -0 -0 -0 -0 -0 -0 -0 -0 -0
-0 -0 -0 -0 -0 -0 -0 -0 -0 -0 -0 -0 -0 -0 -0 -0 -6 -133 -131 -157 -218 -57 -0 -0 -0 -0 -0 -0 -0 -0 -0 -0 -0 -0 -0 -0 -0 -0 -0 -0 -0 -0 -0
-0 -0 -0 -0 -0 -0 -0 -0 -0 -0 -0 -0 -0 -0 -0 -0 -0 -0 -0 -161 -222 -0 -0 -0 -0 -0 -0 -0 -0 -0 -0 -0 -0 -0 -0 -0 -0 -0 -0 -0 -0 -0 -0
-0 -0 -0 -0 -0 -0 -0 -0 -0 -0 -0 -0 -0 -0 -0 -0 -0 -0 -0 -0 -0 -0 -0 -0 -0 -0 -0 -0 -0 -0 -0 -0 -0 -0 -0 -0 -0 -0 -0 -0 -0 -0 -0
-0 -0 -0 -0 -0 -0 -0 -0 -0 -0 -0 -0 -0 -0 -0 -0 -0 -0 -0 -0 -0 -0 -0 -0 -0 -0 -0 -0 -0 -0 -0 -0 -0 -0 -0 -0 -0 -0 -0 -0 -0 -0 -0
-0 -0 -0 -0 -0 -0 -0 -0 -0 -0 -0 -0 -0 -0 -0 -0 -0 -0 -0 -0 -0 -0 -0 -0 -0 -0 -0 -0 -0 -0 -0 -0 -0 -0 -0 -0 -0 -0 -0 -0 -0 -0 -0
-0 -0 -0 -0 -0 -0 -0 -0 -0 -0 -0 -0 -0 -0 -0 -0 -0 -0 -0 -0 -0 -0 -0 -0 -0 -0 -0 -0 -0 -0 -0 -0 -0 -0 -0 -0 -0 -0 -0 -0 -0 -0 -0
-0 -0 -0 -0 -0 -0 -0 -0 -0 -0 -0 -0 -0 -0 -0 -0 -0 -0 -0 -0 -0 -0 -0 -0 -0 -0 -0 -0 -0 -0 -0 -0 -0 -0 -0 -0 -0 -0 -0 -0 -0 -0 -0
-0 -0 -0 -0 -0 -0 -0 -0 -0 -0 -0 -0 -0 -0 -0 -0 -0 -0 -0 -0 -0 -0 -0 -0 -0 -0 -0 -0 -0 -0 -0 -0 -0 -0 -0 -0 -0 -0 -0 -0 -0 -0 -0
-0 -0 -0 -0 -0 -0 -0 -0 -0 -0 -0 -0 -0 -0 -0 -0 -0 -0 -0 -0 -0 -0 -0 -0 -0 -0 -0 -0 -0 -0 -0 -0 -0 -0 -0 -0 -0 -0 -0 -0 -0 -0 -0
-0 -0 -0 -0 -0 -0 -0 -0 -0 -0 -0 -0 -0 -0 -0 -0 -0 -0 -0 -0 -0 -0 -0 -0 -0 -0 -0 -0 -0 -0 -0 -0 -0 -0 -0 -0 -0 -0 -0 -0 -0 -0 -0
-0 -0 -0 -0 -0 -0 -0 -0 -0 -0 -0 -0 -0 -0 -0 -0 -0 -0 -0 -0 -0 -0 -0 -0 -0 -0 -0 -0 -0 -0 -0 -0 -0 -0 -0 -0 -0 -0 -0 -0 -0 -0 -0
-0 -0 -0 -0 -0 -0 -0 -0 -0 -0 -0 -0 -0 -0 -0 -0 -0 -0 -0 -0 -0 -0 -0 -0 -0 -0 -0 -0 -0 -0 -0 -0 -0 -0 -0 -0 -0 -0 -0 -0 -5 -2 -0
-0 -0 -0 -0 -0 -0 -0 -0 -0 -0 -0 -0 -0 -0 -0 -0 -0 -0 -0 -0 -0 -0 -0 -0 -0 -0 -0 -0 -0 -0 -0 -0 -0 -0 -0 -0 -0 -0 -1 -4 -0 -0 -0
-0 -0 -0 -0 -0 -0 -0 -0 -0 -0 -0 -0 -0 -0 -0 -0 -0 -0 -0 -0 -0 -0 -0 -0 -0 -0 -0 -0 -0 -0 -0 -0 -0 -0 -0 -0 -0 -1 -1 -1 -0 -0 -0
-0 -0 -0 -0 -0 -0 -0 -0 -0 -0 -0 -0 -0 -0 -0 -0 -0 -0 -0 -0 -0 -0 -0 -0 -0 -0 -0 -0 -0 -0 -0 -0 -0 -0 -0 -0 -0 -0 -0 -0 -0 -0 -0
-0 -0 -0 -0 -0 -0 -0 -0 -0 -0 -0 -0 -0 -0 -0 -0 -0 -0 -0 -0 -0 -0 -0 -0 -0 -0 -0 -0 -0 -0 -0 -0 -0 -0 -0 -0 -0 -0 -0 -0 -0 -0 -0
-0 -0 -0 -0 -0 -0 -0 -0 -0 -0 -0 -0 -0 -0 -0 -0 -0 -0 -0 -0 -0 -0 -0 -0 -0 -0 -0 -0 -0 -0 -0 -0 -0 -0 -0 -0 -0 -0 -0 -0 -0 -0 -0
-0 -0 -0 -0 -0 -0 -0 -0 -0 -0 -0 -0 -0 -0 -0 -0 -0 -0 -0 -0 -0 -0 -0 -0 -0 -0 -0 -0 -0 -0 -0 -1 -0 -0 -0 -0 -0 -0 -0 -0 -0 -0 -0
-0 -0 -0 -0 -0 -0 -0 -0 -0 -0 -0 -0 -0 -0 -0 -0 -0 -0 -0 -0 -0 -0 -0 -0 -0 -0 -0 -0 -0 -0 -0 -0 -0 -0 -0 -0 -0 -0 -0 -0 -0 -0 -0
Wind_Speed
41 39 40 38 36 37 35 31 30 27 25 24 22 24 25 25 24 22 20 19 17 14 12 12 12 11 10 9 8 8 9 12 10 13 16 16 16 13 12 11 10 10 11
43 43 41 38 35 34 36 34 30 29 28 27 27 26 26 27 25 26 23 21 19 16 15 15 14 14 13 12 10 9 11 13 10 16 18 20 18 16 14 12 11 11 11
37 37 35 36 35 35 34 32 28 27 27 28 28 29 29 30 28 27 25 23 21 21 20 20 19 16 15 14 13 11 12 12 12 15 17 20 20 18 17 15 13 12 13
24 25 26 28 30 32 32 30 30 28 25 24 26 28 31 34 33 30 29 28 25 24 22 21 20 18 17 16 15 13 13 14 15 16 18 20 19 20 21 18 16 16 15
24 25 25 25 26 27 27 26 26 25 25 25 26 30 33 35 34 34 33 32 29 25 23 22 21 20 19 18 16 15 15 16 17 17 19 19 19 21 22 23 20 18 17
26 27 27 27 27 27 26 25 24 24 25 27 28 30 33 35 34 32 32 31 31 29 27 24 23 22 20 20 19 18 17 17 19 18 20 21 22 21 22 23 22 21 19
30 30 31 31 31 31 29 27 26 26 26 25 25 27 30 33 35 34 32 31 31 31 29 26 24 23 22 20 19 19 20 19 20 19 20 21 22 20 21 21 23 23 24
32 32 33 33 34 34 33 31 29 29 28 28 28 28 29 29 31 33 34 34 33 30 30 29 27 25 23 22 20 19 21 20 21 21 21 21 20 21 20 23 23 26 26
36 36 35 35 37 37 37 34 34 34 34 33 33 34 34 34 34 34 33 35 34 32 28 27 27 25 23 21 19 20 20 20 20 19 19 20 21 21 21 22 23 26 30
37 38 36 38 38 39 38 35 33 34 36 37 37 36 36 35 36 35 34 32 30 28 27 26 25 24 23 21 20 19 19 19 19 18 18 20 20 21 22 22 25 27 28
38 39 38 38 37 37 36 33 34 36 38 38 37 36 36 34 32 31 31 29 27 26 25 24 22 21 21 20 19 19 17 18 18 17 18 19 20 22 23 25 26 29 29
38 39 38 36 38 35 33 30 31 32 32 32 32 32 33 33 31 28 25 24 24 21 19 18 17 16 16 16 17 17 15 16 17 18 19 20 21 23 24 28 29 28 27
37 35 34 33 32 30 28 28 29 30 31 31 29 29 28 29 26 23 22 21 18 17 15 13 12 11 10 10 12 14 15 16 17 17 19 21 24 26 26 27 25 26 29
32 30 30 29 28 28 27 28 28 28 27 26 25 25 23 22 19 18 17 15 13 11 10 10 9 8 7 8 10 12 14 15 16 18 21 23 24 24 26 25 26 28 30
32 31 30 27 27 27 27 27 28 27 24 23 21 20 17 15 12 12 10 9 8 8 7 6 6 5 7 9 9 10 13 16 20 22 22 23 24 23 26 27 27 30 31
28 28 26 25 26 27 26 27 27 25 23 21 19 16 14 12 11 9 8 6 5 5 5 5 5 6 9 8 10 12 16 19 20 23 24 23 22 25 27 29 29 30 32
26 25 24 25 25 24 23 24 24 23 22 20 18 16 13 12 11 9 7 7 6 5 5 6 7 9 9 9 13 15 17 19 18 20 21 23 25 28 30 30 31 31 32
22 22 21 23 22 22 22 21 23 23 21 21 19 16 16 13 12 10 8 8 8 7 6 7 8 9 10 11 13 15 15 17 20 21 21 25 29 30 32 32 32 32 33
20 19 20 20 20 21 20 21 22 21 22 22 22 16 17 15 15 8 10 7 8 9 8 8 10 11 12 13 14 16 19 20 22 23 25 28 30 31 32 33 36 36 36
20 20 19 19 20 19 18 20 21 22 23 24 25 24 22 20 15 12 11 10 15 15 13 10 15 13 14 16 19 19 21 23 24 26 28 30 31 32 34 35 37 39 39
21 19 18 19 20 19 20 22 22 24 24 25 26 25 26 24 21 20 21 19 19 17 17 16 17 18 19 20 20 22 24 25 27 29 30 32 33 34 35 35 35 35 34
22 22 19 18 19 19 21 23 25 25 27 29 28 25 23 25 21 20 20 19 19 18 17 18 19 20 21 23 24 25 26 27 29 32 32 32 34 34 33 31 30 30 29
20 20 20 20 20 20 23 25 25 24 23 24 25 26 25 24 22 21 20 20 19 19 19 20 20 22 23 23 25 27 29 29 30 30 31 33 33 31 29 28 27 24 23
19 20 20 20 20 21 22 22 23 24 24 24 24 24 23 22 22 22 21 20 20 20 20 21 23 24 26 26 26 27 29 28 30 27 29 29 27 26 25 24 23 19 12
17 18 19 19 18 19 20 21 21 22 22 22 21 21 21 21 21 21 21 21 21 21 22 22 23 25 27 27 28 29 30 28 29 26 27 27 25 25 24 22 15 12 16
14 16 16 17 17 18 19 19 19 19 19 19 19 19 20 20 20 20 21 22 22 22 24 24 25 25 26 28 28 30 29 29 27 25 25 23 23 23 22 22 22 18 19
Wind_Direction
280 283 282 283 281 278 277 277 274 271 270 269 268 270 270 270 269 269 267 268 269 262 254 258 257 262 256 256 257 290 295 311 318 324 325 326 328 331 333 333 335 336 338
283 283 283 283 282 280 278 278 276 273 268 268 269 271 270 273 269 270 269 268 265 260 256 256 259 259 263 261 253 265 291 304 300 313 316 316 318 321 325 327 326 325 331
289 289 289 286 285 283 280 279 279 279 275 268 269 272 274 276 274 272 270 266 264 263 260 262 263 259 258 253 248 255 274 286 295 306 311 315 312 322 322 322 323 323 323
318 313 306 300 296 292 289 284 278 279 279 275 270 267 269 270 272 272 269 269 263 262 261 258 258 256 257 256 254 259 271 285 288 299 296 305 315 313 316 320 319 320 319
321 321 322 318 315 309 304 299 289 277 279 278 274 274 274 275 275 274 272 270 267 262 260 260 259 258 261 261 254 257 264 280 287 292 297 298 304 306 309 310 316 316 317
323 323 323 321 321 321 319 311 304 294 286 282 279 275 274 275 276 275 273 271 268 265 263 258 258 260 261 258 258 261 263 274 288 288 292 295 299 298 301 307 311 311 314
320 320 320 318 316 316 316 315 310 303 300 295 290 286 282 278 274 273 273 272 270 267 262 259 258 261 265 265 264 263 269 274 283 285 288 295 299 304 302 307 306 310 310
322 321 318 317 315 313 311 310 309 305 303 300 297 294 290 285 281 278 275 273 272 270 266 262 260 260 263 267 269 270 274 276 282 287 290 295 300 302 304 305 304 307 306
316 316 316 316 314 311 309 306 304 301 299 298 295 293 291 287 284 282 278 276 274 272 271 265 261 261 263 266 268 273 274 279 282 287 291 298 303 305 305 309 306 308 304
315 315 318 316 314 312 309 308 306 304 302 299 296 294 292 289 286 283 279 276 276 275 270 268 266 264 265 266 268 273 276 279 284 288 291 299 302 307 309 306 309 307 306
315 317 319 319 319 319 315 311 310 307 305 303 299 296 293 290 289 286 281 278 277 275 273 269 268 265 265 266 270 273 277 281 287 292 296 299 303 306 308 309 313 309 309
321 321 322 323 322 322 325 324 322 319 317 315 311 305 295 290 288 287 284 281 278 276 271 269 270 270 270 270 270 276 283 287 293 297 300 303 306 308 309 310 307 309 313
328 330 330 334 338 342 342 340 336 328 320 317 313 311 309 295 287 285 286 283 278 273 269 268 268 272 271 272 280 283 290 295 299 303 304 306 306 305 311 311 314 316 315
343 347 351 347 353 354 358 355 354 350 335 322 322 316 311 307 298 292 291 286 280 272 271 274 278 283 290 294 296 298 299 304 306 309 309 310 310 313 309 314 319 319 318
342 348 348 355 0 1 5 1 2 7 356 347 335 325 327 324 325 312 308 298 295 288 281 282 294 312 315 316 313 310 309 307 309 311 312 314 316 320 316 320 321 319 319
353 354 5 6 8 7 15 7 9 18 14 358 0 344 346 344 351 348 345 338 338 335 311 315 326 331 328 328 323 319 311 313 317 315 316 326 328 328 327 324 323 321 321
347 359 13 19 20 22 29 19 24 35 40 32 41 42 15 360 0 3 7 18 17 19 357 340 330 330 335 331 325 325 323 323 327 328 334 330 329 328 327 327 325 325 324
0 6 26 26 40 41 39 46 29 35 54 49 42 13 36 23 25 21 22 28 24 11 355 331 335 337 329 345 343 340 351 338 340 339 339 334 330 330 328 327 327 327 326
10 19 18 28 43 45 58 55 48 58 46 34 33 19 31 39 40 21 24 4 12 11 6 357 359 346 348 347 352 353 347 347 345 344 340 335 333 333 332 329 326 326 325
12 17 19 23 25 47 67 58 60 60 71 72 68 66 61 53 43 30 28 26 50 43 32 4 26 7 350 347 350 353 349 345 343 342 339 338 336 334 332 330 328 326 326
12 19 21 31 24 53 61 59 55 63 74 78 81 64 68 63 61 58 56 52 47 37 36 20 18 5 356 357 357 354 352 347 344 341 340 339 338 336 335 332 331 330 332
14 24 28 33 41 42 52 63 70 77 77 77 69 62 57 68 53 50 48 45 44 36 27 19 11 4 357 354 353 352 352 350 346 343 343 343 341 340 340 340 340 339 341
17 31 37 47 49 52 68 70 72 66 62 63 63 69 72 67 60 53 47 40 35 30 24 18 11 6 4 3 359 354 352 351 350 350 350 349 349 350 352 351 352 358 360
38 53 52 52 53 61 64 67 73 77 75 72 71 70 63 55 49 45 42 38 33 27 22 15 9 3 360 359 359 359 356 356 355 358 358 0 3 5 7 11 14 28 54
54 60 58 61 58 64 70 75 76 77 71 67 64 61 55 50 45 38 35 30 26 22 17 14 9 4 359 360 358 357 357 360 0 4 6 10 17 18 23 26 50 53 36
65 66 65 65 66 73 74 76 81 79 71 64 62 58 51 45 41 37 31 26 24 20 14 12 6 6 4 1 360 359 1 2 6 11 15 22 23 22 22 20 19 28 23